COSMOS 2251 DEB, 47116

Orbit data source: Space-Track

COSMOS 2251 DEB, 47116 is space debris in LEO originally from a launch on Wed, 16 Jun 1993 UTC launched from the Plesetsk Missile And Space Complex (PKMTR). The debris from Iridium 33, an American commercial communications satellite, has been tracked extensively since its accidental collision with the defunct Russian satellite Cosmos 2251 in 2009. This event, occurring at high speed in low Earth orbit (LEO), generated thousands of pieces of space debris, significantly increasing the risk of further collisions. The Iridium 33 debris cloud has impacted space traffic management and orbital debris mitigation strategies, making it a subject of ongoing study in space situational awareness.

Loading next visibility...
Identifier
47116, 1993-036BYJ
Orbit
LEO
Country
Flag of CISCIS
Related business
Manufacturer
Unknown
Mission
Spacecraft
Bus & Motor
Unknown
Mass
Unknown
Launch date (UTC)
1993-06-16 (33 years ago)
Launch vehicle
Unknown
Launch site
Plesetsk Missile And Space Complex (PKMTR)
Object type
Payload
Rocket body
Debris
Shape & HBR
Unknown shape, 0.1 m
Radar Cross Section
Small (<0.1 m²)

Expand to show TLE details & history
Last TLE update: 3 days ago

TLE from 3 days ago
0 COSMOS 2251 DEB
1 47116U 93036BYJ 25351.94751728  .00016900  00000-0  14084-2 0  9994
2 47116  74.0233 230.1515 0021313 323.4041  47.2172 14.98433598595897
Epoch: 2025-12-17T22:44Z
TLE epoch observation values (Epoch: 2025-12-17T22:44:25.492Z)
Latitude
10.33073°
Longitude
165.21041°
Altitude
563.624 km
Speed
7.586 km/s
True Right ascension
15h 32m 30s
True Declination
10° 16' 07"
Sunlit
Object was in daylight at epoch
Visualization orbit readout
Latitude
Unknown
Longitude
Unknown
Altitude
Unknown
Speed
Unknown
Apparent Right ascension
Unknown
Apparent Declination
Unknown
Sunlit
N/A
Visualization observer readout
Local Sidereal Time
10:07:42
Azimuth
Unknown
Elevation
Unknown
Doppler factor
Unknown
Orbital elements
Apogee altitude
584.099 km
Perigee altitude
554.485 km
Semi-major axis
6,947.429 km
Eccentricity
0.00213
Inclination
74.0233°
RAAN
230.1515°
Arg. of periapsis
323.4041°
True anomaly
47.39677°
Mean anomaly
47.2172°
Eccentric anomaly
47.30695°
Mean motion
3.74806 °/min
Orbital period
96.05 mins
BSTAR
0.0014084
Loading maneuver chart data...
Computing Atmospheric mass density...

Documentation

Showing up to 5 results
|